Powrót do katalogu

STARLINK-36966

AktywnyŁącznośćVLEO
NORAD 68044·PAYLOAD·🇺🇸 United States

Wystrzelony Mar 2, 2026 z Vandenberg Space Force Base

Loading…

Następne Przeloty (najbliższe 24 godziny)

TLE

ŚwieżeSource: CelesTrak SupGP

Epoka: Sep 14, 2026, 22:53 UTC

1 68044C 26041E   26257.95395833 -.00013690  00000+0 -40470-3 0  2577
2 68044  53.1577 245.5160 0001077  94.9811 117.7872 15.34379672    13

Śledź STARLINK-36966 w czasie rzeczywistym z AllMySat

Download on the App Store